Location: ?????
(55.6500°N, 37.2500°E)
Time: 03:16:37
(UTC+00:00)

Cosmos 2221 - Pass Details

Date: 19 May 2025
Orbit: 572 x 593 km, 82.5° (Epoch: 15 June)

Event Time Altitude Azimuth Distance (km) Brightness Sun altitude
Exits shadow 20:01:12 - 204° (SSW) 1,971 4.7 -12.2°
Reaches altitude 10° 20:01:24 10° 205° (SSW) 1,893 4.6 -12.2°
Maximum altitude 20:05:31 59° 285° (WNW) 672 2.9 -12.4°
Drops below altitude 10° 20:09:40 10° 6° (N) 1,898 6.2 -12.6°
Sets 20:11:53 0° 11° (N) 2,799 7.1 -12.7°
